Lexington Weather

Lexington, Massachusetts, USA

59°F
10/23/2020 5:45pm 
  • Lexington Conditions: Overcast
  • Temperature: 59.4°F / 15.2°CColder 2.5°F than last hour.
  • Dew Point: 53.2°FDecreased 2.4°Fsince last hour.
  • Relative Humidity: 80
  • Wind: Wind from SE SE 1 mph, 10-min avg: 1 mph, gust: 4 mph
  • Barometer: 30.08 inFalling 0.02  inHg/hr Falling Slowly
  • Visibility: 10 miles
  • Rain Today: 0.00 in
  •   

Regional Weather Roundup
for Boston / Norton, MA

        
000
ASUS41 KBOX 221504
RWRBOX

REGIONAL WEATHER ROUNDUP
NATIONAL WEATHER SERVICE BOSTON/NORTON MA
1100 AM EDT THU OCT 22 2020

NOTE:  "FAIR" INDICATES FEW OR NO CLOUDS BELOW 12,000 FEET WITH NO 
SIGNIFICANT WEATHER AND/OR OBSTRUCTIONS TO VISIBILITY.

MAZALL-221600-
EASTERN MASSACHUSETTS
  
CITY           SKY/WX    TMP DP  RH WIND       PRES   REMARKS
BOSTON         MOSUNNY   66  60  81 E9        30.27S                  
BEVERLY        SUNNY     67  53  61 MISG      30.26S                  
LAWRENCE       SUNNY     65  53  65 N5        30.29S                  
BEDFORD        SUNNY     68  58  70 NE3       30.25F                  
BLUE HILL        N/A     67  60  78 N5        30.26S                  
NORWOOD        MOSUNNY   72  59  63 CALM      30.25F                  
MARSHFIELD     SUNNY     68  63  83 VRB7      30.26R                  
PLYMOUTH       MOSUNNY   72  60  66 N6        30.25F                  
TAUNTON        SUNNY     74  60  61 VRB3      30.25S                  
NEW BEDFORD    MOSUNNY   73  62  68 VRB5      30.25S                  
$$

MAZALL-221600-
CAPE COD AND THE ISLANDS
  
CITY           SKY/WX    TMP DP  RH WIND       PRES   REMARKS
FALMOUTH       SUNNY     72  63  73 NE9       30.25F                  
HYANNIS        SUNNY     71  63  75 N8        30.24S                  
CHATHAM        SUNNY     71  62  73 VRB5      30.26S                  
PROVINCETOWN   SUNNY     62  61  96 N7        30.27S                  
NANTUCKET      SUNNY     66  64  93 NW5       30.25F                  
MARTHAS VNYRD  SUNNY     73  63  70 N8        30.25S                  
$$
 
MAZALL-221600-
CENTRAL AND WESTERN MASSACHUSETTS
  
CITY           SKY/WX    TMP DP  RH WIND       PRES   REMARKS
WORCESTER      SUNNY     68  56  65 NW6       30.28S                  
FITCHBURG      SUNNY     68  56  65 SE3       30.27F                  
ORANGE         SUNNY     67  57  70 SE3       30.27F                  
SPRINGFIELD    PTSUNNY   68  55  62 CALM      30.25F                  
WESTFIELD      MOSUNNY   68  57  68 W3        30.26F                  
NORTH ADAMS    CLOUDY    64  51  62 W3        30.28S                  
PITTSFIELD     CLOUDY    64  52  64 W3        30.27S                  
$$
 
RIZALL-221600-
RHODE ISLAND
  
CITY           SKY/WX    TMP DP  RH WIND       PRES   REMARKS
PROVIDENCE     SUNNY     72  59  63 N6        30.26S                  
NEWPORT        SUNNY     69  61  75 N10       30.26S                  
BLOCK ISLAND   MOSUNNY   66  64  93 CALM      30.27S                  
SMITHFIELD     SUNNY     70  61  73 VRB6        N/A                   
WESTERLY       PTSUNNY   67  64  90 S5        30.27R                  
$$
 
CTZALL-221600-
CONNECTICUT
  
CITY           SKY/WX    TMP DP  RH WIND       PRES   REMARKS
BRADLEY INTL   MOSUNNY   71  57  61 CALM      30.25F                  
HARTFORD       SUNNY     71  58  63 NE3       30.25F                  
BRIDGEPORT     PTSUNNY   68  65  90 SE7       30.26S                  
DANBURY        CLOUDY    66  61  84 CALM      30.28S                  
GROTON         FOG       65  64  97 S7        30.25S VSB 1/4          
NEW HAVEN      CLOUDY    70  64  81 NE6       30.25F                  
CHESTER        CLOUDY    70  64  83 NE3       30.27S                  
MERIDEN        PTSUNNY   70  59  68 CALM      30.26F                  
WILLIMANTIC    SUNNY     71  59  65 VRB5      30.26S                  
OXFORD         CLOUDY    66  62  87 VRB3      30.28F                  
$$

MEZ002-015-021-024-NHZ003-005-008-011-012-014-VTZ005-008-221600-
NORTHERN NEW ENGLAND
  
CITY           SKY/WX    TMP DP  RH WIND       PRES   REMARKS
PORTLAND ME    MOSUNNY   58  53  84 CALM      30.29R                  
BANGOR ME      PTSUNNY   58  43  57 NW12      30.27S                  
CONCORD NH     SUNNY     62  51  67 W3        30.27S                  
MANCHESTER NH  PTSUNNY   65  50  58 CALM      30.25F                  
NASHUA NH      SUNNY     65  54  67 E3        30.27S                  
PORTSMOUTH NH  MOSUNNY   64  51  64 NW5       30.25                   
JAFFREY NH     SUNNY     64  53  67 S6        30.28R                  
KEENE NH       SUNNY     65  52  62 VRB3      30.27S                  
BURLINGTON VT  PTSUNNY   56  45  66 CALM      30.29S                  
MT. WASHINGTON PTSUNNY   45 -11   9 W29         N/A                   
$$

NYZ052-076-221600-
EASTERN NEW YORK
  
CITY           SKY/WX    TMP DP  RH WIND       PRES   REMARKS
ALBANY         MOSUNNY   61  52  72 VRB3      30.28F                  
NEW YORK CITY  CLOUDY    66  62  87 NE6       30.26S FOG              
$$
 
ANZALL-221600-
MARINE OBSERVATIONS
  
STATION/POSITION TIME  TEMP    WIND        PRES    VSBY  WAVE
                       AIR SEA DIR/SP/G                  HT/PER
                 (UTC) (F)     (DEG/KT/KT) (MB)    (MI)  (FT/S)
BOSTON BUOY      1450   60 58   20/  6/  6 1023.9S         3/10
BUZZARDS BAY     1400          290/  3/  3 1025.6F
NANTUCKET SOUND  1450      62  280/  6/  6   N/A           1
MASS BAY-STELLWA 1404   60 58  360/  2/  4 1024.6S  1 7/8  3/11
ISLE OF SHOALS   1400   55      40/ 11/ 12 1024.4R
S OF BLOCK IS    1426      63                N/A           3/ 9
$$

......................KEY.........................
  SKY/WX - SKY CONDITION/PRESENT WEATHER
  TMP    - TEMPERATURE IN FAHRENHEIT
  DWPT   - DEWPOINT IN FAHRENHEIT
  RH     - RELATIVE HUMIDITY IN PERCENT
  WIND   - DIRECTION AND SPEED IN MPH
  PRES   - MEAN SEA LEVEL PRESSURE IN INCHES OF HG
  WCI    - WIND CHILL INDEX
  VSB    - VISIBILITY IN MILES
  HX     - HEAT INDEX
  TC     - TEMPERATURE IN CELSIUS
  VRB    - VARIABLE WIND DIRECTION
  N/A    - NOT AVAILABLE
  
      

Other recent Regional Weather Roundups

Fri Oct 23, 5:05pm

Fri Oct 23, 4:04pm

Fri Oct 23, 3:04pm

Fri Oct 23, 2:05pm

Fri Oct 23, 1:04pm

Fri Oct 23, 12:04pm

Fri Oct 23, 11:04am

Fri Oct 23, 10:04am

Fri Oct 23, 9:04am

Fri Oct 23, 8:04am

Fri Oct 23, 7:04am

Fri Oct 23, 6:04am

Fri Oct 23, 5:04am

Fri Oct 23, 4:04am

Fri Oct 23, 3:04am

Fri Oct 23, 2:04am

Fri Oct 23, 1:04am

Fri Oct 23, 12:04am

Thu Oct 22, 11:04pm

Thu Oct 22, 10:04pm

Thu Oct 22, 9:05pm

Thu Oct 22, 8:04pm

Thu Oct 22, 7:05pm

Thu Oct 22, 6:04pm

Thu Oct 22, 5:04pm

Thu Oct 22, 4:05pm

Thu Oct 22, 3:04pm

Thu Oct 22, 2:05pm

Thu Oct 22, 1:04pm

Thu Oct 22, 12:04pm

Thu Oct 22, 10:05am

Thu Oct 22, 9:04am

Thu Oct 22, 8:05am

Thu Oct 22, 7:04am

Thu Oct 22, 6:04am

Thu Oct 22, 5:04am

Thu Oct 22, 4:04am

Thu Oct 22, 3:04am

Thu Oct 22, 2:04am

Thu Oct 22, 1:04am

Thu Oct 22, 12:04am

Wed Oct 21, 11:05pm

Wed Oct 21, 10:04pm

Wed Oct 21, 9:04pm

Wed Oct 21, 8:04pm

Wed Oct 21, 7:04pm

Wed Oct 21, 6:04pm

Wed Oct 21, 5:05pm

Wed Oct 21, 4:04pm

Wed Oct 21, 3:04pm

Wed Oct 21, 2:05pm

Wed Oct 21, 1:04pm

Wed Oct 21, 12:04pm

Wed Oct 21, 11:04am

Wed Oct 21, 10:04am

Wed Oct 21, 9:04am

Wed Oct 21, 8:04am

Wed Oct 21, 7:04am

Wed Oct 21, 6:04am

Wed Oct 21, 5:04am

Wed Oct 21, 4:04am

Wed Oct 21, 3:04am

Wed Oct 21, 2:04am

Wed Oct 21, 1:04am

Wed Oct 21, 12:04am

Tue Oct 20, 11:05pm

Tue Oct 20, 10:04pm

Tue Oct 20, 9:04pm

Tue Oct 20, 8:05pm

Tue Oct 20, 7:04pm

Tue Oct 20, 6:04pm

Tue Oct 20, 5:05pm

Tue Oct 20, 4:04pm

Tue Oct 20, 3:05pm

Tue Oct 20, 2:07pm

Tue Oct 20, 1:04pm

Tue Oct 20, 12:04pm

Tue Oct 20, 11:04am

Tue Oct 20, 10:05am

Tue Oct 20, 9:04am

Tue Oct 20, 8:04am

Tue Oct 20, 7:04am

Tue Oct 20, 6:04am

Tue Oct 20, 5:04am

Tue Oct 20, 4:04am

Tue Oct 20, 3:04am

Tue Oct 20, 2:04am

Tue Oct 20, 1:04am

Tue Oct 20, 12:04am

Mon Oct 19, 11:04pm

Mon Oct 19, 10:04pm

Mon Oct 19, 9:04pm

Mon Oct 19, 8:04pm

Mon Oct 19, 7:04pm

Mon Oct 19, 6:04pm

Mon Oct 19, 5:04pm

Mon Oct 19, 4:04pm

Mon Oct 19, 3:04pm

Mon Oct 19, 2:04pm

Mon Oct 19, 1:05pm

Mon Oct 19, 12:04pm

Mon Oct 19, 11:04am

Mon Oct 19, 10:04am

Mon Oct 19, 9:04am

Mon Oct 19, 8:04am

Mon Oct 19, 7:04am

Mon Oct 19, 6:04am

Mon Oct 19, 5:04am

Mon Oct 19, 4:04am

Mon Oct 19, 3:04am

Mon Oct 19, 2:04am

Mon Oct 19, 1:04am

Mon Oct 19, 12:05am

Sun Oct 18, 11:04pm

Sun Oct 18, 10:04pm

Sun Oct 18, 9:04pm

Sun Oct 18, 8:04pm

Sun Oct 18, 7:05pm

Sun Oct 18, 6:04pm

Sun Oct 18, 5:05pm

Sun Oct 18, 4:05pm

Sun Oct 18, 3:04pm

Sun Oct 18, 2:05pm

Sun Oct 18, 1:04pm

Sun Oct 18, 12:04pm

Sun Oct 18, 11:04am

Sun Oct 18, 10:04am

Sun Oct 18, 9:04am

Sun Oct 18, 8:04am

Sun Oct 18, 7:04am

Sun Oct 18, 6:04am

Sun Oct 18, 5:04am

Sun Oct 18, 4:04am

Sun Oct 18, 3:04am

Sun Oct 18, 2:04am

Sun Oct 18, 1:04am

Sun Oct 18, 12:04am

Sat Oct 17, 11:05pm

Sat Oct 17, 10:04pm

Sat Oct 17, 9:04pm

Sat Oct 17, 8:04pm

Sat Oct 17, 7:04pm

Sat Oct 17, 6:04pm

Sat Oct 17, 5:05pm

Sat Oct 17, 4:04pm

Sat Oct 17, 3:04pm

Sat Oct 17, 2:05pm

Sat Oct 17, 1:05pm

Sat Oct 17, 12:04pm

Sat Oct 17, 11:05am

Sat Oct 17, 10:04am

Sat Oct 17, 9:04am

Sat Oct 17, 8:04am

Sat Oct 17, 7:04am

Sat Oct 17, 6:04am

Sat Oct 17, 5:04am

Sat Oct 17, 4:04am

Sat Oct 17, 3:04am

Sat Oct 17, 2:04am

Sat Oct 17, 1:05am

Sat Oct 17, 12:04am

Fri Oct 16, 11:05pm

Fri Oct 16, 10:04pm

Fri Oct 16, 9:05pm

Fri Oct 16, 8:04pm

Fri Oct 16, 7:05pm

Fri Oct 16, 6:04pm

Meta data:

ID: c0b0bde6-d5c3-4db6-aa42-68bdb9782f29
Link: https://api.weather.gov/products/c0b0bde6-d5c3-4db6-aa42-68bdb9782f29